{"data":{"norad_id":67946,"epoch":"2026-05-25T04:30:34.610112Z","epoch_age_seconds":52636,"freshness":"FRESH","line1":"1 67946U 26037Q   26145.18790058  .00014529  00000+0  53622-3 0  9997","line2":"2 67946  43.0015 118.3751 0001756 284.1966  75.8690 15.27594485 15043","mean_motion":15.27594485,"eccentricity":0.0001756,"inclination_deg":43.0015,"raan_deg":118.3751,"arg_perigee_deg":284.1966,"mean_anomaly_deg":75.869,"bstar":0.00053622,"rev_number":1504,"period_min":94.265854854798,"perigee_km":481.80090641926,"apogee_km":484.2105397436,"semimajor_km":6861.1427230814,"source":"CELESTRAK","updated_at":"2026-05-25T13:38:21.769181Z"}}